Starlink 32265

operational
NORAD ID: 60415 Int'l Des: 2024-141 Owner: SPXS Country: US Constellation: starlink
LEOCIRCULAR

Starlink 32265について

説明を読み込み中...

リアルタイム位置

3D地球を読み込み中...

次回通過

高度履歴

Altitude vs Time

uPlot chart will show altitude changes over time

軌道要素

1 60415U 24141T 25351.16123360 -.00000611 00000-0 -84814-5 0 9996
2 60415 53.1614 266.0295 0001608 88.9346 271.1839 15.30194249 76946
Epoch: Dec 17, 2025 • Age: 16 hours

現在のステータス

高度 478.6 km
速度 7.63 km/s
衛星直下点 -11.60°S, 124.69°W
打ち上げ日 Aug 10, 2024
運用期間 1.3 years
タイプ internet

技術仕様

分類 Payload
質量 730.00 kg
乾燥質量 700.00 kg
総質量 730.00 kg
長さ 0.30 m
直径 4.10 m
スパン 29.00 m
形状 Box + pan
製造者 SPXS
バスタイプ Starlink V2M
フェーズステータス In Orbit
所有者/国 SPXS/US

大規模コンステレーション

Loading constellations...